SCP
0 0 0 0 0 0 0 0 0 0 0 0 0 0 0 0 0 0 0 0 0 0 0 0 0 0 0 0 0 0 0 0 0 0 0 0 0 0 0 0 0 0 0 1 1 1 1 0 0
0 0 0 0 0 0 0 0 0 0 0 0 0 0 0 0 0 0 0 0 0 0 0 0 0 0 0 0 0 0 0 0 0 0 0 0 0 0 0 0 0 0 0 0 1 1 1 1 1
0 0 0 0 0 0 0 0 0 0 0 0 0 0 0 0 0 0 0 0 0 0 0 0 0 0 0 0 0 0 0 0 0 0 0 0 0 0 0 0 0 0 0 0 0 0 1 1 1
0 0 0 0 0 0 0 0 0 0 0 0 0 0 0 0 0 0 0 0 0 0 0 0 0 0 0 0 0 0 0 0 0 0 0 0 0 0 0 0 0 0 0 0 0 0 0 1 1
0 0 0 0 0 0 0 0 0 0 0 0 0 0 0 0 0 0 0 0 0 0 0 0 0 0 0 0 0 0 0 0 0 0 0 0 0 0 0 0 0 0 0 0 0 0 0 0 0
0 0 0 0 0 0 0 0 0 0 0 0 0 0 0 0 0 0 0 0 0 0 0 0 0 0 0 0 0 0 0 0 0 0 0 0 0 0 0 0 0 0 0 0 0 0 0 0 0
0 0 0 0 0 0 0 0 0 0 0 0 0 0 0 0 0 0 0 0 0 0 0 0 0 0 0 0 0 0 0 0 0 0 0 0 0 0 0 0 0 0 0 0 0 0 0 0 0
0 0 0 0 0 0 0 0 0 0 0 0 0 0 0 0 0 0 0 0 0 0 0 0 0 0 0 0 0 0 0 0 0 0 0 0 0 0 0 0 0 0 0 0 0 0 0 0 0
0 0 0 0 0 0 0 0 0 0 0 0 0 0 0 0 0 0 0 0 0 0 0 0 0 0 0 0 0 0 0 0 0 0 0 0 0 0 0 0 0 0 0 0 0 0 0 0 0
0 0 0 0 0 0 0 0 0 0 0 0 0 0 0 0 0 0 0 0 0 0 0 0 0 0 0 0 0 0 0 0 0 0 0 0 0 0 0 0 0 0 0 0 0 0 0 0 0
0 0 0 0 0 0 0 0 0 0 0 0 0 0 0 0 0 0 0 0 0 0 0 0 0 0 0 0 0 0 0 0 0 0 0 0 0 0 0 0 0 0 0 0 0 0 0 0 0
0 0 0 0 0 0 0 0 0 0 0 0 0 0 0 0 0 0 0 0 0 0 0 0 0 0 0 0 0 0 0 0 0 0 0 0 0 0 0 0 -0 0 0 0 0 0 0 0 0
0 0 0 0 0 0 0 0 0 0 0 0 0 0 0 0 0 0 0 0 0 0 0 0 0 0 0 0 0 0 0 0 0 0 0 0 0 0 0 -0 0 0 0 0 0 0 0 0 0
0 0 0 0 0 0 0 0 0 0 0 0 0 0 0 0 0 0 0 0 0 0 0 0 0 0 0 0 0 0 0 0 0 0 0 0 0 0 0 0 0 0 0 -0 -0 -0 0 0 0
0 0 0 0 0 0 0 0 0 0 0 0 0 0 0 0 0 0 0 0 0 0 0 0 0 0 0 0 0 0 0 0 0 0 0 0 0 0 0 0 0 0 0 0 -0 -0 0 0 0
0 0 0 0 0 0 0 0 0 0 0 0 0 0 0 0 0 0 0 0 0 0 0 0 0 0 0 0 0 0 0 0 0 0 0 0 0 0 0 0 0 0 0 0 0 0 0 0 0
0 0 0 0 0 0 0 0 0 0 0 0 0 0 0 0 0 0 0 0 0 0 0 0 0 0 0 0 0 0 0 0 0 0 0 0 0 0 0 0 0 0 0 0 0 0 0 0 0
0 0 0 0 0 0 0 0 0 0 0 0 0 0 0 0 0 0 0 0 0 0 0 0 0 0 0 0 0 0 0 0 0 0 0 0 0 0 0 0 0 0 0 0 0 0 0 0 0
0 0 0 0 0 0 0 0 0 0 0 0 0 0 0 0 0 0 0 0 0 0 0 0 0 0 0 0 0 0 0 0 0 0 0 0 0 0 0 0 0 0 0 0 0 0 0 0 0
0 0 0 0 0 0 0 0 0 0 0 0 0 0 0 0 0 0 0 0 0 0 0 0 0 0 0 0 0 0 0 0 0 0 0 0 0 0 0 0 0 0 0 0 0 0 0 0 0
0 0 0 0 0 0 0 0 0 0 0 0 0 0 0 0 0 0 0 0 0 0 0 0 0 0 0 0 0 0 0 0 0 0 0 0 0 0 0 0 0 0 0 0 0 0 0 0 0
0 0 0 0 0 0 0 0 0 0 0 0 0 0 0 0 0 0 0 0 0 0 0 0 0 0 0 0 0 0 0 0 0 0 0 0 0 0 0 0 0 0 0 0 0 0 0 0 0
0 0 0 0 0 0 0 0 0 0 0 0 0 0 0 0 0 0 0 0 0 0 0 0 0 0 0 0 0 0 0 0 0 0 0 0 0 0 0 0 0 0 0 0 0 0 0 0 0
0 0 0 0 0 0 0 0 0 0 0 0 0 0 0 0 0 0 0 0 0 0 0 0 0 0 0 0 0 0 0 0 0 0 0 0 0 0 0 0 0 0 0 0 0 0 0 0 0
0 0 0 0 0 0 0 0 0 0 0 0 0 0 0 0 0 0 0 0 0 0 0 0 0 0 0 0 0 0 0 0 0 0 0 0 0 0 0 0 0 0 0 0 0 0 0 0 0
0 0 0 0 0 0 0 0 0 0 0 0 0 0 0 0 0 0 0 0 0 0 0 0 0 0 0 0 0 0 0 0 0 0 0 0 0 0 0 0 0 0 0 0 0 0 0 0 0
0 0 0 0 0 0 0 0 0 0 0 0 0 0 0 0 0 0 0 0 0 0 0 0 0 0 0 0 0 0 0 0 0 0 0 0 0 0 0 0 0 0 0 0 0 0 0 0 0
0 0 0 0 0 0 0 0 0 0 0 0 0 0 0 0 0 0 0 0 0 0 0 0 0 0 0 0 0 0 0 0 0 0 0 0 0 0 0 0 0 0 0 0 0 0 0 0 0
0 0 0 0 0 0 0 0 0 0 0 0 0 0 0 0 0 0 0 0 0 0 0 0 0 0 0 0 0 0 0 0 0 0 0 0 0 0 0 0 0 0 0 0 0 0 0 0 0
0 0 0 0 0 0 0 0 0 0 0 0 0 0 0 0 0 0 0 0 0 0 0 0 0 0 0 0 0 0 0 0 0 0 0 0 0 0 0 0 0 0 0 0 0 0 0 0 0
Wind_Speed
10 5 4 6 10 11 8 6 4 5 6 5 9 10 9 8 9 8 3 8 12 13 15 19 27 27 27 27 27 27 27 27 27 28 28 27 27 26 26 26 25 24 22 20 18 16 15 14 14
4 4 8 9 9 8 5 5 7 6 9 7 8 7 8 8 5 5 5 10 14 15 15 18 27 27 27 27 27 27 27 27 27 27 28 28 27 26 26 26 26 26 25 24 22 20 18 16 15
2 7 9 9 8 5 4 3 6 11 10 5 6 6 7 5 5 5 6 11 14 15 15 19 27 28 27 27 28 27 27 27 27 27 28 28 28 27 26 26 26 25 25 25 24 23 21 19 17
5 8 10 11 11 5 4 5 3 3 9 9 6 7 6 6 5 5 9 13 14 12 13 18 28 28 28 28 28 28 28 28 28 28 27 27 27 27 26 26 26 26 25 25 24 24 24 22 20
7 8 11 8 6 3 4 8 10 9 6 6 7 9 6 7 8 9 11 13 12 11 12 17 27 28 28 28 28 28 28 28 28 28 28 27 27 27 26 26 27 26 26 26 25 24 25 24 23
8 8 9 6 4 3 3 6 4 8 6 4 7 7 6 6 9 9 11 11 10 10 11 14 25 28 28 27 28 28 27 28 28 28 28 27 27 27 26 27 27 27 26 26 25 25 25 25 24
8 8 7 7 5 3 3 4 6 4 6 5 3 7 5 7 6 7 9 9 8 9 11 13 14 18 24 26 27 27 27 27 27 27 27 27 27 27 27 28 28 27 27 26 26 25 26 25 24
7 8 6 5 5 3 2 4 4 5 4 4 5 7 5 3 5 7 8 8 9 10 11 12 12 15 14 14 24 26 26 27 27 27 27 26 24 24 25 25 27 27 27 26 26 26 26 26 24
7 9 5 2 7 6 5 5 4 6 9 9 8 9 7 5 7 10 9 10 11 14 11 11 12 14 14 13 19 19 22 24 23 20 25 21 12 12 15 23 27 27 27 27 27 27 26 25 22
9 7 2 1 7 8 6 6 7 5 8 8 8 8 8 9 10 11 11 11 12 12 12 11 13 15 14 13 11 8 11 11 12 12 13 10 10 11 16 22 25 26 26 25 26 27 23 19 12
8 7 5 6 8 8 6 5 4 8 5 5 8 7 7 9 8 9 7 6 7 7 12 12 12 12 12 10 9 7 7 8 9 12 12 9 8 8 10 8 12 13 17 12 17 16 12 12 12
9 7 5 5 5 6 5 5 5 4 7 9 10 8 7 8 7 6 6 6 6 9 10 9 9 10 10 9 8 7 8 7 9 10 12 9 7 8 9 8 9 9 8 10 10 10 13 14 14
7 5 5 8 12 9 9 8 7 7 9 9 10 9 8 7 5 5 5 6 7 7 8 8 8 10 10 9 9 9 8 9 10 9 10 11 8 9 9 8 8 9 8 10 10 11 13 14 14
7 8 8 7 8 4 10 7 6 7 8 9 10 8 7 6 5 5 6 6 6 6 7 8 8 10 10 9 9 8 8 9 9 8 10 12 9 9 9 10 8 8 9 9 10 12 11 11 11
7 8 4 3 4 5 7 4 3 8 8 8 8 7 6 5 5 6 5 5 5 5 6 9 10 10 9 9 10 9 8 9 9 9 10 12 11 10 10 9 8 9 10 10 10 11 9 11 11
5 5 2 4 5 6 5 3 5 7 9 8 7 6 6 4 4 4 5 5 5 5 6 8 11 9 8 8 8 6 7 8 8 8 8 12 13 12 10 9 8 9 9 9 10 9 11 11 11
1 1 3 4 6 6 5 4 6 6 9 8 7 6 6 4 4 4 4 5 5 5 6 7 8 9 8 8 6 6 5 6 6 6 7 11 12 13 11 8 8 10 8 8 10 11 11 12 12
3 4 3 5 6 6 4 4 6 5 8 8 7 6 5 5 4 4 4 4 5 5 6 7 8 8 8 6 5 5 5 5 5 5 7 10 10 13 11 8 9 9 8 8 9 12 11 11 12
3 2 3 3 3 5 5 6 8 5 7 7 6 6 5 4 4 4 3 4 5 7 7 7 7 8 7 7 8 9 9 8 7 7 9 10 11 12 10 9 9 9 8 10 12 12 12 11 11
1 3 2 1 1 1 2 4 5 4 6 7 8 7 5 4 4 3 3 5 6 5 6 6 6 7 7 6 5 6 7 5 6 6 7 8 10 11 11 10 9 9 9 10 11 12 9 10 10
4 2 2 3 2 1 3 1 3 1 3 4 5 5 4 5 4 2 3 4 3 4 5 7 6 7 7 7 5 7 5 5 5 6 6 8 10 10 9 10 9 9 8 9 10 10 11 11 10
1 2 2 3 3 2 3 3 5 5 4 4 4 4 4 4 3 2 2 2 2 3 4 5 6 7 7 7 7 9 10 8 8 7 7 9 9 9 9 10 9 9 9 9 10 10 10 10 10
2 1 2 2 2 1 1 2 3 4 6 5 5 4 4 4 3 2 1 1 2 4 5 5 6 6 7 7 7 8 8 7 8 9 9 8 7 8 10 10 8 10 9 10 11 11 10 8 10
1 3 2 4 3 3 4 5 5 6 7 6 5 5 4 4 2 1 2 3 4 5 6 6 7 7 7 7 7 8 9 10 12 12 10 9 7 6 9 11 8 9 9 10 11 10 11 10 11
5 5 5 6 4 5 1 4 5 4 4 7 8 6 5 3 1 3 5 5 6 7 7 7 7 7 8 8 8 9 9 9 11 12 11 11 9 9 9 11 9 9 8 10 10 10 11 11 12
2 3 4 2 5 7 3 3 4 4 2 6 7 6 4 2 3 4 4 5 6 7 7 7 8 8 9 9 9 9 8 8 8 10 11 11 10 10 10 11 11 10 10 12 10 9 10 10 11
1 1 3 4 2 4 6 4 4 3 3 5 5 5 4 3 4 4 4 5 6 6 7 7 8 9 10 10 10 9 9 10 10 11 10 9 10 12 13 13 12 11 11 11 11 9 11 11 11
1 3 4 2 2 5 8 6 6 9 9 7 5 5 3 2 3 4 4 5 5 5 6 7 7 8 9 10 9 11 10 11 11 11 12 12 12 13 13 13 12 12 12 11 10 10 11 12 11
0 1 2 2 3 3 6 9 4 10 9 8 7 5 5 3 2 3 4 4 5 6 6 6 7 8 9 9 9 10 10 11 11 11 12 12 12 13 13 14 13 13 13 11 11 12 13 13 13
1 2 4 2 3 3 4 9 1 6 7 8 7 6 5 4 2 1 3 4 5 6 7 7 8 9 10 9 10 11 11 12 12 12 13 13 13 13 14 14 14 14 14 12 12 13 13 13 13
Wind_Direction
330 347 54 55 59 59 57 11 13 103 76 55 59 73 83 65 72 105 276 350 12 13 5 3 13 13 14 16 17 18 18 18 18 18 15 14 13 11 10 8 5 0 354 347 339 331 322 314 309
337 29 49 54 67 67 53 8 41 63 133 129 71 63 68 67 60 76 14 16 27 21 10 7 15 14 14 15 16 16 16 16 16 16 14 12 11 10 10 8 5 2 358 354 347 338 328 318 310
33 57 63 60 65 80 81 19 78 73 72 79 77 52 58 49 39 51 25 34 33 23 12 7 17 14 14 15 15 14 15 14 14 14 12 11 9 7 6 6 3 0 358 355 351 346 338 326 316
73 52 60 65 73 41 37 327 280 89 63 44 90 63 59 27 51 62 45 43 35 23 13 9 18 15 14 15 15 13 13 12 11 10 9 8 7 4 4 4 360 358 356 354 351 349 346 340 327
64 69 70 65 73 70 32 14 43 51 62 37 75 88 65 18 60 59 51 44 35 23 17 14 18 16 14 15 14 12 12 11 9 8 6 6 5 2 2 2 358 355 354 351 350 350 348 345 340
62 65 78 93 108 115 52 27 50 49 71 70 88 102 71 19 54 49 49 43 34 25 19 18 17 16 14 13 13 11 11 10 8 6 5 5 3 1 1 0 355 352 352 349 348 349 347 345 342
87 78 88 113 121 99 92 64 44 51 51 28 85 95 90 32 49 54 49 38 30 26 23 18 15 14 11 10 11 10 9 8 7 5 4 4 3 1 0 357 353 351 350 348 347 347 345 342 341
97 93 88 107 120 120 99 75 66 53 57 28 62 97 93 51 51 53 46 36 29 28 25 19 15 13 6 2 8 8 7 6 6 4 3 5 4 0 359 354 351 350 348 349 347 346 343 342 340
69 74 81 114 145 147 147 109 68 48 69 59 60 83 105 85 57 48 39 31 28 25 21 18 17 12 5 2 3 4 5 3 4 1 2 4 359 353 358 351 351 350 348 349 346 345 344 343 338
56 88 85 331 143 137 125 111 122 95 76 77 79 79 81 66 55 48 37 25 20 17 15 19 19 12 5 2 357 358 359 356 355 355 357 359 357 353 358 349 350 349 347 348 345 344 344 342 334
63 102 108 69 97 106 102 91 95 120 92 122 122 108 84 72 63 58 47 35 22 16 17 16 19 9 3 0 355 360 354 353 352 353 356 358 353 351 352 346 345 342 345 345 341 339 339 336 332
81 63 92 110 88 82 93 99 82 96 132 139 131 125 106 88 75 70 58 41 30 26 16 8 19 9 1 360 353 359 355 353 353 350 355 359 354 353 350 345 339 339 342 339 337 333 333 335 330
79 89 58 82 77 80 88 91 103 116 135 132 121 114 113 108 96 82 72 55 41 28 11 4 19 12 3 3 357 1 354 353 349 348 355 358 353 352 347 341 336 335 339 337 335 332 333 332 329
100 98 102 93 91 90 111 113 111 157 148 128 121 120 122 115 107 83 63 51 41 29 14 4 18 12 3 4 358 355 353 350 347 349 354 355 351 348 345 338 333 339 339 334 333 326 329 325 324
95 89 91 128 113 131 120 86 153 165 144 132 130 130 124 114 102 91 83 68 49 34 19 11 13 8 360 0 357 355 349 348 348 349 352 351 349 347 344 336 337 340 335 332 331 324 326 323 322
94 100 136 201 156 166 134 162 200 167 141 142 141 136 131 123 111 105 92 79 58 39 25 14 8 2 356 354 349 343 344 345 345 347 350 348 349 348 343 335 339 338 337 335 330 330 328 323 320
117 162 205 195 194 173 174 179 206 172 146 147 149 148 146 142 121 103 86 77 59 41 24 11 1 356 350 344 338 328 331 337 339 342 346 347 347 346 340 334 339 339 337 334 333 334 328 323 321
220 224 203 210 200 172 175 171 188 173 144 147 149 150 151 144 133 114 82 67 55 35 23 11 357 350 343 340 338 335 341 340 339 339 344 346 345 343 338 339 338 340 338 335 332 330 326 322 320
221 178 178 207 184 175 181 167 189 164 133 145 153 154 150 139 121 104 76 58 42 26 13 3 351 344 346 350 351 348 346 342 341 341 341 342 342 341 338 344 337 339 336 332 331 329 326 328 325
104 114 139 209 207 167 137 169 182 161 162 168 163 163 153 124 106 96 57 44 35 15 354 353 346 340 344 342 334 331 325 320 327 322 327 334 338 338 343 340 336 336 332 329 331 327 327 325 328
52 105 181 202 183 100 113 90 173 175 149 139 140 150 139 118 110 88 49 44 18 353 343 356 342 338 337 334 333 336 324 318 329 329 332 334 333 332 331 332 331 331 329 326 325 323 328 324 320
259 209 191 157 148 257 174 273 201 194 185 160 151 137 120 108 119 103 58 33 354 333 339 345 338 333 331 334 340 343 344 335 331 328 323 323 323 325 330 328 328 328 325 322 321 328 318 318 318
262 252 224 172 168 318 229 225 268 171 204 200 185 163 143 140 138 105 79 38 5 350 347 338 333 328 328 331 333 332 329 321 322 325 322 320 317 319 325 325 325 325 322 319 317 318 317 315 310
315 37 66 56 74 300 217 180 246 206 212 181 175 170 162 160 137 95 45 23 1 351 343 335 332 327 328 331 330 327 325 324 328 330 326 327 323 319 319 324 322 319 317 317 316 316 313 310 306
42 53 20 355 357 271 176 181 248 227 206 168 168 175 172 157 113 47 28 8 352 345 338 333 333 332 333 334 333 327 326 323 324 327 327 327 326 325 319 323 319 317 314 314 314 314 311 307 306
341 116 129 261 266 291 329 252 253 233 174 137 147 156 152 122 71 49 27 2 347 340 337 336 338 338 339 341 338 330 332 330 328 327 327 325 324 320 316 319 315 312 313 316 311 309 307 306 304
62 114 163 153 290 286 282 281 286 236 180 152 152 145 136 99 67 46 16 1 348 341 339 338 342 343 344 343 338 338 338 332 329 326 323 322 320 320 321 317 314 311 310 310 309 306 305 303 299
163 151 93 122 294 293 292 273 237 206 207 185 173 160 146 109 66 36 8 352 341 337 334 339 346 343 338 338 338 341 331 327 324 322 321 319 318 317 317 317 314 312 310 307 306 305 302 302 301
207 193 139 136 174 213 286 275 223 191 182 176 176 165 156 127 80 20 348 338 335 336 339 344 346 341 338 334 330 327 323 322 320 319 317 316 314 316 317 317 315 313 310 309 307 305 304 304 304
241 211 152 178 266 207 242 275 76 151 152 151 155 156 150 124 96 3 339 336 340 343 345 347 343 338 334 330 328 326 322 321 320 318 317 316 316 316 316 316 314 313 313 309 306 304 306 303 302